• In Hungary
  • List of Countries
  • For 7 days
  • Water Temperature
  • Satellite Maps
  • Weather Map
  • News
  • Weather Widgets
  • user-avatar
    Login

    Hourly Weather Lillehammer

    Today, 16 January, Tuesday

    Time Temperature Precipitation Wind Pressure Humidity
    00:00 -7°C° 0.8 mm 5 mps 695 mmHg 94%
    01:00 -7°C° 0 mm 5 mps 694 mmHg 95%
    02:00 -7°C° 0.8 mm 5 mps 693 mmHg 95%
    03:00 -6°C° 0.8 mm 5 mps 692 mmHg 95%
    04:00 -6°C° 0.8 mm 5 mps 691 mmHg 95%
    05:00 -6°C° 1.2 mm 5 mps 691 mmHg 95%
    06:00 -5°C° 1.2 mm 5 mps 690 mmHg 95%
    07:00 -8°C° 0 mm 6 mps 690 mmHg 97%
    08:00 -6°C° 1.3 mm 5 mps 689 mmHg 96%
    09:00 -5°C° 1.3 mm 4 mps 688 mmHg 96%
    10:00 -5°C° 1.3 mm 4 mps 688 mmHg 96%
    11:00 -5°C° 1.1 mm 3 mps 688 mmHg 96%
    12:00 -5°C° 1.1 mm 3 mps 687 mmHg 96%
    13:00 -5°C° 0 mm 3 mps 687 mmHg 97%
    14:00 -4°C° 0.9 mm 2 mps 687 mmHg 97%
    15:00 -4°C° 0.9 mm 2 mps 687 mmHg 97%
    16:00 -2°C° 0.9 mm 1 mps 687 mmHg 97%
    17:00 -3°C° 0.3 mm 1 mps 687 mmHg 96%
    18:00 -3°C° 0.3 mm 1 mps 688 mmHg 96%
    19:00 -6°C° 0.3 mm 2 mps 688 mmHg 96%
    20:00 -6°C° 0 mm 2 mps 688 mmHg 96%
    21:00 -6°C° 0 mm 1 mps 689 mmHg 96%
    22:00 -7°C° 0 mm 1 mps 689 mmHg 97%
    23:00 -6°C° 0 mm 1 mps 690 mmHg 97%

    Tomorrow, 17 January, Wednesday

    Time Temperature Precipitation Wind Pressure Humidity
    00:00 -6°C° 0 mm 1 mps 690 mmHg 97%
    01:00 -6°C° 0 mm 1 mps 691 mmHg 97%
    02:00 -6°C° 0 mm 1 mps 691 mmHg 97%
    03:00 -6°C° 0 mm 1 mps 691 mmHg 97%
    04:00 -4°C° 0 mm 1 mps 691 mmHg 96%
    05:00 -4°C° 0.1 mm 1 mps 692 mmHg 96%
    06:00 -6°C° 0.1 mm 1 mps 692 mmHg 95%
    07:00 -6°C° 0.1 mm 1 mps 692 mmHg 95%
    08:00 -6°C° 0.3 mm 1 mps 692 mmHg 95%
    09:00 -6°C° 0.3 mm 1 mps 693 mmHg 95%
    10:00 -6°C° 0.3 mm 1 mps 693 mmHg 94%
    11:00 -6°C° 0.4 mm 1 mps 693 mmHg 94%
    12:00 -4°C° 0.4 mm 1 mps 694 mmHg 94%
    13:00 -4°C° 0.4 mm 1 mps 694 mmHg 94%
    14:00 -4°C° 0.3 mm 1 mps 695 mmHg 94%
    15:00 -6°C° 0.3 mm 1 mps 695 mmHg 94%
    16:00 -6°C° 0.3 mm 1 mps 696 mmHg 95%
    17:00 -6°C° 0.2 mm 1 mps 696 mmHg 95%
    18:00 -6°C° 0.2 mm 1 mps 696 mmHg 95%
    19:00 -7°C° 0.2 mm 1 mps 697 mmHg 96%
    20:00 -7°C° 0.1 mm 1 mps 697 mmHg 96%
    21:00 -8°C° 0.1 mm 1 mps 697 mmHg 96%
    22:00 -8°C° 0.1 mm 1 mps 698 mmHg 96%
    23:00 -8°C° 0.1 mm 1 mps 698 mmHg 96%

    Day after tomorrow, 18 January, Thursday

    Time Temperature Precipitation Wind Pressure Humidity
    00:00 -8°C° 0.1 mm 1 mps 698 mmHg 96%
    01:00 -9°C° 0.1 mm 1 mps 699 mmHg 96%
    02:00 -9°C° 0.1 mm 1 mps 699 mmHg 96%
    03:00 -9°C° 0.1 mm 1 mps 699 mmHg 96%
    04:00 -9°C° 0.1 mm 1 mps 699 mmHg 96%
    05:00 -9°C° 0.1 mm 1 mps 699 mmHg 96%
    06:00 -10°C° 0.1 mm 1 mps 699 mmHg 96%
    07:00 -10°C° 0.1 mm 1 mps 700 mmHg 96%
    08:00 -10°C° 0.1 mm 1 mps 700 mmHg 96%
    09:00 -10°C° 0.1 mm 1 mps 700 mmHg 96%
    10:00 -10°C° 0.1 mm 1 mps 700 mmHg 96%
    11:00 -10°C° 0.1 mm 1 mps 700 mmHg 96%
    12:00 -9°C° 0.1 mm 1 mps 700 mmHg 96%
    13:00 -9°C° 0.1 mm 1 mps 700 mmHg 96%
    14:00 -10°C° 0.1 mm 1 mps 700 mmHg 96%
    15:00 -10°C° 0.1 mm 1 mps 700 mmHg 96%
    16:00 -11°C° 0.1 mm 1 mps 700 mmHg 96%
    17:00 -11°C° 0 mm 1 mps 700 mmHg 97%
    18:00 -12°C° 0 mm 1 mps 700 mmHg 97%
    19:00 -12°C° 0 mm 1 mps 700 mmHg 97%
    20:00 -12°C° 0 mm 1 mps 701 mmHg 97%
    21:00 -12°C° 0 mm 0 mps 701 mmHg 96%
    22:00 -12°C° 0 mm 0 mps 701 mmHg 96%
    23:00 -13°C° 0 mm 0 mps 701 mmHg 96%

    19 January, Friday

    Time Temperature Precipitation Wind Pressure Humidity
    00:00 -13°C° 0 mm 0 mps 701 mmHg 96%
    01:00 -13°C° 0 mm 0 mps 701 mmHg 97%
    02:00 -13°C° 0 mm 0 mps 701 mmHg 96%
    03:00 -13°C° 0 mm 0 mps 701 mmHg 96%
    04:00 -13°C° 0 mm 0 mps 701 mmHg 96%
    05:00 -13°C° 0 mm 0 mps 702 mmHg 96%
    06:00 -13°C° 0 mm 0 mps 702 mmHg 96%
    07:00 -13°C° 0 mm 0 mps 702 mmHg 95%
    08:00 -13°C° 0 mm 0 mps 702 mmHg 95%
    09:00 -13°C° 0 mm 0 mps 703 mmHg 95%
    10:00 -13°C° 0 mm 0 mps 703 mmHg 95%
    11:00 -12°C° 0 mm 0 mps 703 mmHg 95%
    12:00 -11°C° 0 mm 0 mps 704 mmHg 95%
    13:00 -10°C° 0 mm 0 mps 704 mmHg 95%
    14:00 -11°C° 0 mm 0 mps 704 mmHg 95%
    15:00 -12°C° 0 mm 0 mps 704 mmHg 96%
    16:00 -13°C° 0 mm 0 mps 704 mmHg 96%
    17:00 -13°C° 0 mm 0 mps 705 mmHg 96%
    18:00 -13°C° 0 mm 0 mps 705 mmHg 96%
    19:00 -13°C° 0 mm 0 mps 706 mmHg 96%
    20:00 -13°C° 0 mm 0 mps 706 mmHg 95%
    21:00 -12°C° 0 mm 0 mps 706 mmHg 95%
    22:00 -12°C° 0 mm 0 mps 706 mmHg 95%
    23:00 -12°C° 0 mm 0 mps 707 mmHg 95%

    20 January, Saturday

    Time Temperature Precipitation Wind Pressure Humidity
    00:00 -13°C° 0 mm 0 mps 707 mmHg 95%
    01:00 -13°C° 0 mm 0 mps 707 mmHg 95%
    02:00 -13°C° 0 mm 1 mps 707 mmHg 95%
    03:00 -14°C° 0 mm 1 mps 707 mmHg 94%
    04:00 -14°C° 0 mm 1 mps 707 mmHg 94%
    05:00 -15°C° 0 mm 1 mps 707 mmHg 93%
    06:00 -15°C° 0 mm 1 mps 707 mmHg 93%
    07:00 -15°C° 0 mm 1 mps 708 mmHg 92%
    08:00 -15°C° 0 mm 1 mps 708 mmHg 92%
    09:00 -15°C° 0 mm 1 mps 708 mmHg 91%
    10:00 -15°C° 0 mm 1 mps 708 mmHg 90%
    11:00 -14°C° 0 mm 1 mps 709 mmHg 89%
    12:00 -13°C° 0 mm 1 mps 709 mmHg 89%
    13:00 -12°C° 0 mm 1 mps 709 mmHg 88%
    14:00 -13°C° 0 mm 1 mps 709 mmHg 87%
    15:00 -14°C° 0 mm 1 mps 709 mmHg 85%
    16:00 -14°C° 0 mm 1 mps 709 mmHg 84%
    17:00 -14°C° 0 mm 1 mps 710 mmHg 84%
    18:00 -14°C° 0 mm 1 mps 710 mmHg 83%
    19:00 -15°C° 0 mm 1 mps 710 mmHg 83%
    20:00 -14°C° 0 mm 1 mps 710 mmHg 82%
    21:00 -14°C° 0 mm 1 mps 711 mmHg 82%
    22:00 -14°C° 0 mm 1 mps 711 mmHg 82%
    23:00 -14°C° 0 mm 1 mps 711 mmHg 83%

    21 January, Sunday

    Time Temperature Precipitation Wind Pressure Humidity
    00:00 -14°C° 0 mm 1 mps 711 mmHg 83%
    01:00 -13°C° 0 mm 1 mps 711 mmHg 83%
    02:00 -13°C° 0 mm 1 mps 711 mmHg 84%
    03:00 -13°C° 0 mm 1 mps 711 mmHg 84%
    04:00 -12°C° 0 mm 1 mps 712 mmHg 84%
    05:00 -12°C° 0 mm 1 mps 712 mmHg 84%
    06:00 -12°C° 0 mm 1 mps 712 mmHg 83%
    07:00 -13°C° 0 mm 1 mps 712 mmHg 82%
    08:00 -12°C° 0 mm 1 mps 712 mmHg 82%
    09:00 -12°C° 0 mm 1 mps 712 mmHg 82%
    10:00 -12°C° 0 mm 1 mps 713 mmHg 81%
    11:00 -11°C° 0 mm 1 mps 713 mmHg 82%
    12:00 -10°C° 0 mm 1 mps 713 mmHg 83%
    13:00 -9°C° 0 mm 1 mps 713 mmHg 84%
    14:00 -10°C° 0 mm 1 mps 713 mmHg 83%
    15:00 -11°C° 0 mm 1 mps 713 mmHg 82%
    16:00 -12°C° 0 mm 1 mps 713 mmHg 81%
    17:00 -12°C° 0 mm 1 mps 713 mmHg 81%
    18:00 -13°C° 0 mm 1 mps 714 mmHg 81%
    19:00 -13°C° 0 mm 1 mps 714 mmHg 81%
    20:00 -13°C° 0 mm 1 mps 714 mmHg 81%
    21:00 -14°C° 0 mm 1 mps 714 mmHg 81%
    22:00 -14°C° 0 mm 1 mps 714 mmHg 81%
    23:00 -14°C° 0 mm 1 mps 714 mmHg 80%
    Show more